Middleton, WI

9:20 AM CDT on June 25, 2017 (GMT -0500)
Middleton

Weather History for KC29 - November, 2012

Change the Weather History Date:

Tuesday, November 20, 2012

  Actual Average (KMSN) Record (KMSN)
Temperature  
Mean Temperature 49 °F -  
Max Temperature 58 °F 41 °F 65 °F (2003)
Min Temperature 40 °F 25 °F 5 °F (1914)
Degree Days  
Heating Degree Days 16    
Moisture  
Dew Point 44 °F    
Average Humidity 85    
Maximum Humidity 99    
Minimum Humidity 57    
Precipitation  
Precipitation 0.01 in - - ()
Sea Level Pressure  
Sea Level Pressure 30.12 in    
Wind  
Wind Speed 3 mph (WNW)    
Max Wind Speed 7 mph    
Max Gust Speed -    
Visibility 5 miles    
Events      
Averages and records for this station are not official NWS values.
T = Trace of Precipitation, MM = Missing Value Source: NWS Daily Summary

Daily Weather History Graph

Daily Weather History Graph

Search for Another Location

Airport or City:

Trip Planner

Search our weather history database for the weather conditions in past years. The results will help you decide how hot, cold, wet, or windy it might be!

Date:

Astronomy

Nov. 20, 2012 Rise Set
Actual Time 6:57 AM CST 4:29 PM CST
Civil Twilight 6:26 AM CST 5:00 PM CST
Nautical Twilight 5:51 AM CST 5:35 PM CST
Astronomical Twilight 5:18 AM CST 6:09 PM CST
Moon 12:26 PM CST (11/20) No Moon Set
Length of Visible Light 10h 34m
Length of Day
9h 31m
First Quarter, 51% of the Moon is Illuminated
Nov 20
First Quarter
Nov 28
Full
Dec 6
Last Quarter
Dec 13
New
Dec 19
First Quarter

Hourly Weather History & Observations

Time (CST) Temp. Windchill Dew Point Humidity Pressure Visibility Wind Dir Wind Speed Gust Speed Precip Events Conditions
12:15 AM 49.1 °F - 44.6 °F 84% 30.07 in 7.0 mi Calm Calm - N/A   Overcast
12:35 AM 48.9 °F - 45.1 °F 87% 30.07 in 7.0 mi WSW 4.6 mph - N/A   Overcast
12:55 AM 48.7 °F - 45.5 °F 89% 30.07 in 5.0 mi WSW 4.6 mph - N/A   Overcast
1:15 AM 48.4 °F - 45.7 °F 90% 30.07 in 5.0 mi Calm Calm - N/A   Overcast
1:35 AM 48.2 °F - 45.7 °F 91% 30.07 in 5.0 mi Calm Calm - N/A   Overcast
1:55 AM 48.2 °F - 45.7 °F 91% 30.07 in 5.0 mi Calm Calm - N/A   Overcast
2:15 AM 48.4 °F - 45.7 °F 90% 30.07 in 5.0 mi Calm Calm - N/A   Overcast
2:35 AM 48.2 °F - 45.5 °F 90% 30.07 in 5.0 mi Calm Calm - N/A   Overcast
5:14 AM 48.2 °F - 46.4 °F 93% 30.08 in 5.0 mi Calm Calm - N/A   Overcast
5:55 AM 46.9 °F - 44.8 °F 92% 30.08 in 4.0 mi Calm Calm - N/A   Mostly Cloudy
6:15 AM 46.8 °F - 45.0 °F 93% 30.08 in 4.0 mi WNW 5.8 mph - N/A   Mostly Cloudy
6:35 AM 47.3 °F - 45.3 °F 93% 30.09 in 4.0 mi WNW 6.9 mph - N/A   Mostly Cloudy
6:55 AM 46.8 °F - 45.0 °F 93% 30.10 in 2.5 mi WNW 5.8 mph - N/A   Clear
7:15 AM 46.2 °F 44.1 °F 44.6 °F 94% 30.10 in 2.0 mi NW 4.6 mph - N/A   Clear
7:35 AM 46.8 °F - 45.1 °F 94% 30.10 in 2.0 mi NW 6.9 mph - N/A   Clear
7:55 AM 47.3 °F - 45.5 °F 93% 30.11 in 2.0 mi NW 4.6 mph - N/A   Scattered Clouds
8:15 AM 48.2 °F - 46.4 °F 93% 30.11 in 3.0 mi NW 4.6 mph - N/A   Scattered Clouds
8:35 AM 49.1 °F - 46.6 °F 91% 30.11 in 3.0 mi NW 5.8 mph - N/A   Scattered Clouds
8:55 AM 49.1 °F - 46.4 °F 90% 30.11 in 4.0 mi NW 5.8 mph - N/A   Scattered Clouds
9:15 AM 50.4 °F - 46.9 °F 88% 30.10 in 4.0 mi NW 4.6 mph - N/A   Clear
9:35 AM 51.3 °F - 46.9 °F 85% 30.11 in 5.0 mi NW 6.9 mph - N/A   Clear
9:55 AM 52.0 °F - 46.6 °F 82% 30.11 in 5.0 mi NNW 5.8 mph - N/A   Clear
10:15 AM 53.2 °F - 46.9 °F 79% 30.11 in 5.0 mi NNW 5.8 mph - N/A   Clear
10:35 AM 54.3 °F - 46.8 °F 76% 30.11 in 7.0 mi NW 3.5 mph - N/A   Clear
10:55 AM 54.7 °F - 45.1 °F 70% 30.11 in 7.0 mi NNW 3.5 mph - N/A   Scattered Clouds
11:15 AM 55.4 °F - 44.4 °F 67% 30.11 in 7.0 mi Calm Calm - N/A   Mostly Cloudy
11:35 AM 55.0 °F - 43.7 °F 66% 30.10 in 7.0 mi Calm Calm - N/A   Scattered Clouds
11:55 AM 55.9 °F - 43.5 °F 63% 30.10 in 7.0 mi NW 4.6 mph - N/A   Scattered Clouds
12:15 PM 56.7 °F - 43.9 °F 62% 30.09 in 7.0 mi NNW 5.8 mph - N/A   Scattered Clouds
12:55 PM 57.6 °F - 43.7 °F 60% 30.10 in 7.0 mi WNW 4.6 mph - N/A   Clear
1:15 PM 57.9 °F - 43.9 °F 60% 30.09 in 7.0 mi Calm Calm - N/A   Clear
1:35 PM 57.9 °F - 42.6 °F 57% 30.09 in 10.0 mi NNW 3.5 mph - N/A   Clear
2:15 PM 58.1 °F - 42.8 °F 57% 30.09 in 10.0 mi NW 5.8 mph - N/A   Clear
2:35 PM 57.9 °F - 43.7 °F 59% 30.09 in 10.0 mi NW 5.8 mph - N/A   Clear
2:55 PM 57.4 °F - 43.9 °F 61% 30.10 in 10.0 mi NW 4.6 mph - N/A   Clear
3:15 PM 56.8 °F - 43.9 °F 62% 30.10 in 10.0 mi NW 3.5 mph - N/A   Clear
3:35 PM 56.1 °F - 44.6 °F 65% 30.10 in 10.0 mi Calm Calm - N/A   Clear
3:55 PM 54.0 °F - 43.7 °F 68% 30.11 in 10.0 mi West 4.6 mph - N/A   Clear
4:15 PM 53.2 °F - 43.5 °F 70% 30.11 in 10.0 mi West 3.5 mph - N/A   Clear
4:35 PM 51.1 °F - 43.3 °F 75% 30.12 in 7.0 mi West 4.6 mph - N/A   Clear
4:55 PM 46.4 °F - 40.8 °F 81% 30.12 in 7.0 mi Calm Calm - N/A   Clear
5:15 PM 46.9 °F - 43.5 °F 88% 30.13 in 7.0 mi West 3.5 mph - N/A   Clear
5:35 PM 43.9 °F - 42.1 °F 93% 30.14 in 5.0 mi Calm Calm - N/A   Clear
5:55 PM 43.7 °F - 41.7 °F 93% 30.14 in 5.0 mi Calm Calm - N/A   Clear
6:15 PM 44.6 °F - 43.0 °F 94% 30.14 in 5.0 mi Calm Calm - N/A   Clear
6:35 PM 44.6 °F - 42.3 °F 91% 30.14 in 5.0 mi Calm Calm - N/A   Clear
6:55 PM 45.0 °F - 42.6 °F 91% 30.15 in 5.0 mi Calm Calm - N/A   Clear
7:15 PM 43.5 °F 40.1 °F 42.1 °F 95% 30.16 in 4.0 mi West 5.8 mph - N/A   Clear
7:35 PM 44.4 °F 42.0 °F 42.8 °F 94% 30.16 in 4.0 mi West 4.6 mph - N/A   Clear
7:55 PM 43.7 °F 41.1 °F 42.3 °F 95% 30.16 in 3.0 mi West 4.6 mph - N/A   Clear
8:15 PM 43.3 °F - 42.3 °F 96% 30.16 in 2.0 mi Calm Calm - N/A   Clear
8:35 PM 44.1 °F 41.5 °F 43.0 °F 96% 30.16 in 2.5 mi West 4.6 mph - N/A   Clear
8:55 PM 42.3 °F - 41.2 °F 96% 30.16 in 0.5 mi Calm Calm - N/A   Mostly Cloudy
9:15 PM 42.8 °F - 41.7 °F 96% 30.16 in 0.2 mi Calm Calm - N/A   Overcast
9:35 PM 42.4 °F 40.7 °F 41.5 °F 97% 30.16 in 0.2 mi West 3.5 mph - N/A   Overcast
9:55 PM 42.1 °F - 41.2 °F 97% 30.16 in 0.2 mi Calm Calm - N/A   Overcast
10:15 PM 41.9 °F - 41.0 °F 97% 30.16 in 0.2 mi Calm Calm - N/A   Overcast
10:35 PM 41.4 °F 39.4 °F 40.6 °F 97% 30.16 in 0.2 mi West 3.5 mph - N/A   Overcast
10:55 PM 41.2 °F 39.2 °F 40.5 °F 97% 30.17 in 0.2 mi West 3.5 mph - N/A   Overcast
11:15 PM 41.0 °F 39.0 °F 40.1 °F 97% 30.17 in 0.2 mi West 3.5 mph - N/A   Overcast
11:35 PM 40.5 °F - 40.1 °F 99% 30.17 in 0.2 mi Calm Calm - N/A   Overcast
11:55 PM 40.3 °F 38.2 °F 39.7 °F 98% 30.17 in 0.2 mi WSW 3.5 mph - N/A   Overcast